Home > Weather > Hamilton > Past weeks

Flag for Canada Weather for the Past 2 Weeks in Hamilton, Ontario, Canada

Now
32 °F

Light snow. Low clouds.


Feels Like: 26 °F
Forecast: 32 / 38 °F
Wind: 7 mph from Southwest

Location: Hamilton Airport

Current Time: Feb 9, 2016 at 7:58:46 AM

Latest Report: Feb 9, 2016 at 7:00 AM


Visibility: 6 mi

Pressure: 29.51 "Hg

Humidity: 100%

Dew point: 32 °F

Location of HamiltonLocation

Historic Weather in Hamilton — Graph

°F

Hamilton Temperature Yesterday

Maximum temperature yesterday: 43 °F (at 12:00 PM)
Minimum temperature yesterday: 32 °F (at 7:00 AM)
Average temperature yesterday: 36 °F

High & Low Weather Summary for the Past Weeks

 TemperatureHumidityPressure
High55 °F (Feb 3, 1:00 PM)100% (Jan 28, 8:00 PM)30.35 "Hg (Jan 28, 8:00 PM)
Low14 °F (Jan 30, 12:00 AM)45% (Feb 6, 2:00 PM)29.49 "Hg (Jan 31, 10:00 PM)
Average34 °F79%29.91 "Hg
* Reported Jan 25 6:00 AM — Feb 9 6:00 AM, Hamilton, Weather by CustomWeather, © 2016

Note: Actual official high and low records may vary slightly from our data, if they occured in-between our weather recording intervals... More about our weather records

Advertising

Hamilton Weather History for the Previous 24 Hours

 ConditionsComfort  
Time TempWeatherWind HumidityBarometerVisibility
6:00 AM
Tue, Feb 9
32 °FLight snow. Passing clouds.7 mph100%29.51 "Hg6 mi
5:00 AM32 °FIce fog.6 mph100%29.50 "Hg4 mi
4:00 AM32 °FIce fog.8 mph100%29.49 "Hg1 mi
3:00 AM32 °FFog.3 mph100%29.51 "Hg1 mi
2:00 AM32 °FLight snow. Low clouds.3 mph100%29.51 "Hg2 mi
1:00 AM32 °FLight snow. Low clouds.5 mph100%29.52 "Hg2 mi
12:00 AM32 °FLight snow. Low clouds.6 mph100%29.54 "Hg2 mi
11:00 PM
Mon, Feb 8
34 °FLight snow. Low clouds.9 mph93%29.54 "Hg2 mi
10:00 PM34 °FLight rain. Fog.9 mph100%29.55 "Hg2 mi
9:00 PM36 °FLight rain. Fog.9 mph93%29.57 "Hg2 mi
8:00 PM34 °FLight rain. Fog.12 mph100%29.58 "Hg5 mi
7:00 PM36 °FLight rain. Fog.13 mph93%29.59 "Hg5 mi
6:00 PM36 °FLight rain. Fog.9 mph93%29.60 "Hg4 mi
5:00 PM37 °FLight rain. Mostly cloudy.14 mph87%29.60 "Hg8 mi
4:00 PM37 °FOvercast.14 mph87%29.59 "Hg10 mi
3:00 PM39 °FOvercast.9 mph81%29.60 "Hg15 mi
2:00 PM39 °FMostly cloudy.12 mph81%29.60 "Hg15 mi
1:00 PM43 °FCloudy.8 mph57%29.61 "Hg15 mi
12:00 PM43 °FMostly cloudy.12 mph61%29.64 "Hg15 mi
11:00 AM41 °FMore clouds than sun.8 mph66%29.66 "Hg15 mi
10:00 AM37 °FMostly cloudy.7 mph75%29.68 "Hg15 mi
9:00 AM36 °FMostly cloudy.6 mph93%29.69 "Hg15 mi
8:00 AM34 °FPartly sunny.8 mph93%29.69 "Hg15 mi
7:00 AM32 °FPassing clouds.8 mph93%29.69 "Hg15 mi
Weather by CustomWeather, © 2016

See weather overviewHow to use our weather pages